EW5239 Weather Reports


Display with metric or nautical units.
time (UTC)temp
F
wind
direction
speed
MPH
gust
MPH
rain 1hr
in
rain 24hr
in
rain mn
in
humidity
%
barometer
mb
20260509010506 48 0 0.0 0.0 0.00 0.00 0.00 96 1017.0
20260509010502 48 265 1.0 2.0 0.00 0.00 0.00 99 1019.3
20260509005505 48 0 0.0 0.0 0.00 0.00 0.00 96 1017.2
20260509005502 48 260 1.0 2.0 0.00 0.00 0.00 99 1019.1
20260509005006 48 0 0.0 0.0 0.00 0.00 0.00 96 1017.2
20260509005003 48 258 1.0 2.0 0.00 0.00 0.00 99 1019.2
20260509004505 48 0 0.0 0.0 0.00 0.00 0.00 96 1017.3
20260509004005 48 0 0.0 0.0 0.00 0.00 0.00 96 1017.2
20260509004003 48 268 2.0 2.0 0.00 0.00 0.00 99 1019.3
20260509003506 48 0 0.0 0.0 0.00 0.00 0.00 96 1017.2
20260509003503 48 306 1.0 2.0 0.00 0.00 0.00 99 1019.3
20260509003006 48 0 0.0 0.0 0.00 0.00 0.00 96 1017.3
20260509003003 48 281 0.0 2.0 0.00 0.00 0.00 99 1019.4
20260509002505 48 0 0.0 0.0 0.00 0.00 0.00 96 1017.2
20260509002503 48 246 0.0 1.0 0.00 0.00 0.00 99 1019.4
20260509002006 48 0 0.0 0.0 0.00 0.00 0.00 96 1017.2
20260509002003 48 248 0.0 1.0 0.00 0.00 0.00 99 1019.4
20260509001505 48 0 0.0 0.0 0.00 0.00 0.00 96 1017.4
20260509001503 48 314 0.0 1.0 0.00 0.00 0.00 99 1019.4
20260509001005 48 0 0.0 0.0 0.00 0.00 0.00 96 1017.3
20260509001003 48 314 0.0 1.0 0.00 0.00 0.00 98 1019.5
20260509000506 48 0 0.0 0.0 0.00 0.00 0.00 95 1017.2
20260509000503 48 225 0.0 1.0 0.00 0.00 0.00 98 1019.4
20260509000009 48 225 1.0 2.0 0.00 0.00 0.00 98 1019.5
20260509000005 48 0 0.0 0.0 0.00 0.00 0.00 95 1017.4
20260508235505 48 0 0.0 0.0 0.00 0.00 0.00 95 1017.4
20260508235502 48 229 1.0 2.0 0.00 0.00 0.00 98 1019.6
20260508235006 48 0 0.0 0.0 0.00 0.00 0.00 95 1017.3
20260508234505 49 0 0.0 0.0 0.00 0.00 0.00 95 1017.4
20260508234503 48 247 1.0 2.0 0.00 0.00 0.00 98 1019.4
20260508234006 49 0 0.0 0.0 0.00 0.00 0.00 95 1017.3
20260508234003 48 225 1.0 2.0 0.00 0.00 0.00 98 1019.2
20260508233505 49 0 0.0 0.0 0.00 0.00 0.00 95 1017.4
20260508232506 49 0 0.0 0.0 0.00 0.00 0.00 95 1017.3
20260508232503 48 225 0.0 2.0 0.00 0.00 0.00 98 1019.5
20260508232005 49 0 0.0 0.0 0.00 0.00 0.00 95 1017.4
20260508231006 49 0 0.0 0.0 0.00 0.00 0.00 95 1017.3
20260508231003 48 0 0.0 0.0 0.00 0.00 0.00 98 1019.4
20260508230505 49 0 0.0 0.0 0.00 0.00 0.00 95 1017.4
20260508230005 49 0 0.0 0.0 0.00 0.00 0.00 95 1017.5
20260508225505 49 0 0.0 0.0 0.00 0.00 0.00 95 1017.5
20260508225503 48 225 0.0 1.0 0.00 0.00 0.00 98 1019.7
20260508225003 48 0 0.0 0.0 0.00 0.00 0.00 97 1019.5
20260508224506 49 0 0.0 0.0 0.00 0.00 0.00 95 1017.5
20260508224502 48 0 0.0 0.0 0.00 0.00 0.00 97 1019.6
20260508224006 49 0 0.0 0.0 0.00 0.00 0.00 95 1017.3
20260508224003 48 135 0.0 1.0 0.00 0.00 0.00 97 1019.5
20260508223503 48 135 0.0 1.0 0.00 0.00 0.00 97 1019.5
20260508223006 49 0 0.0 0.0 0.00 0.00 0.00 95 1017.5
20260508223003 48 0 0.0 0.0 0.00 0.00 0.00 97 1019.6
20260508222005 49 0 0.0 0.0 0.00 0.00 0.00 95 1017.5
20260508222002 48 225 0.0 1.0 0.00 0.00 0.00 97 1019.8
20260508221506 49 0 0.0 0.0 0.00 0.00 0.00 94 1017.4
20260508221503 48 225 1.0 2.0 0.00 0.00 0.00 97 1019.6
20260508221006 49 0 0.0 0.0 0.00 0.00 0.00 94 1017.5
20260508221003 48 234 1.0 2.0 0.00 0.00 0.00 97 1019.5
20260508220505 49 0 0.0 0.0 0.00 0.00 0.00 94 1017.4
20260508220503 48 248 1.0 2.0 0.00 0.00 0.00 96 1019.4
20260508220010 48 251 1.0 2.0 0.00 0.00 0.00 96 1019.4
20260508220006 49 0 0.0 0.0 0.00 0.00 0.00 94 1017.3
20260508215505 49 0 0.0 0.0 0.00 0.00 0.00 94 1017.3
20260508215503 48 238 1.0 2.0 0.00 0.00 0.00 96 1019.6
20260508215006 49 0 0.0 0.0 0.00 0.00 0.00 94 1017.3
20260508215003 48 245 1.0 2.0 0.00 0.00 0.00 96 1019.5
20260508214505 49 0 0.0 0.0 0.00 0.00 0.00 94 1017.3
20260508214502 48 269 0.0 1.0 0.00 0.00 0.00 96 1019.3
20260508214003 48 270 0.0 1.0 0.00 0.00 0.00 96 1019.4
20260508213506 49 0 0.0 0.0 0.00 0.00 0.00 94 1017.4
20260508213503 48 270 0.0 1.0 0.00 0.00 0.00 96 1019.6
20260508213003 48 270 0.0 1.0 0.00 0.00 0.00 96 1019.6
20260508212505 49 0 0.0 0.0 0.00 0.00 0.00 94 1017.4
20260508212503 48 270 0.0 1.0 0.00 0.00 0.00 95 1019.4
20260508212006 49 0 0.0 0.0 0.00 0.00 0.00 93 1017.4
20260508212003 48 270 0.0 1.0 0.00 0.00 0.00 94 1019.4
20260508211506 49 0 0.0 0.0 0.00 0.00 0.00 93 1017.4
20260508211503 48 270 0.0 1.0 0.00 0.00 0.00 94 1019.5
20260508211005 49 0 0.0 0.0 0.00 0.00 0.00 93 1017.5
20260508210505 49 0 0.0 0.0 0.00 0.00 0.00 93 1017.5
20260508210503 48 271 0.0 1.0 0.00 0.00 0.00 94 1019.5
20260508210009 48 271 0.0 1.0 0.00 0.00 0.00 94 1019.6
20260508210005 49 0 0.0 0.0 0.00 0.00 0.00 93 1017.6
20260508205505 49 0 0.0 0.0 0.00 0.00 0.00 93 1017.5
20260508205503 48 266 1.0 2.0 0.00 0.00 0.00 94 1019.8
20260508205003 48 265 0.0 2.0 0.00 0.00 0.00 94 1019.5
20260508204506 49 0 0.0 0.0 0.00 0.00 0.00 92 1017.6
20260508204005 49 0 0.0 0.0 0.00 0.00 0.00 92 1017.7
20260508204003 49 227 1.0 2.0 0.00 0.00 0.00 93 1019.6
20260508203506 49 0 0.0 0.0 0.00 0.00 0.00 92 1017.6
20260508203005 49 0 0.0 0.0 0.00 0.00 0.00 92 1017.5
20260508203002 49 230 1.0 1.0 0.00 0.00 0.00 93 1019.5
20260508202506 49 0 0.0 0.0 0.00 0.00 0.00 91 1017.4
20260508202503 49 232 0.0 1.0 0.00 0.00 0.00 92 1019.8
20260508202005 49 0 0.0 0.0 0.00 0.00 0.00 91 1017.5
20260508202003 49 225 0.0 1.0 0.00 0.00 0.00 92 1019.6
20260508201505 49 0 0.0 0.0 0.00 0.00 0.00 91 1017.7
20260508201503 49 0 0.0 0.0 0.00 0.00 0.00 92 1019.6
20260508201006 49 0 0.0 0.0 0.00 0.00 0.00 91 1017.4
20260508201003 49 0 0.0 0.0 0.00 0.00 0.00 92 1019.5
20260508200505 49 0 0.0 0.0 0.00 0.00 0.00 90 1017.5
20260508200502 49 270 0.0 1.0 0.00 0.00 0.00 92 1019.4
20260508200009 49 273 1.0 2.0 0.00 0.00 0.00 91 1019.5
20260508200006 49 0 0.0 0.0 0.00 0.00 0.00 90 1017.5
20260508195505 49 0 0.0 0.0 0.00 0.00 0.00 90 1017.6
20260508195503 49 274 1.0 2.0 0.00 0.00 0.00 91 1019.5
20260508195006 49 0 0.0 0.0 0.00 0.00 0.00 90 1017.5
20260508194506 49 0 0.0 0.0 0.00 0.00 0.00 90 1017.5
20260508194503 49 270 0.0 1.0 0.00 0.00 0.00 91 1019.4
20260508194005 50 0 0.0 0.0 0.00 0.00 0.00 90 1017.5
20260508194003 49 270 1.0 2.0 0.00 0.00 0.00 90 1019.5
20260508193505 50 0 0.0 0.0 0.00 0.00 0.00 89 1017.5
20260508193503 49 270 1.0 2.0 0.00 0.00 0.00 90 1019.3
20260508193006 50 0 0.0 0.0 0.00 0.00 0.00 89 1017.4
20260508193003 49 270 0.0 1.0 0.00 0.00 0.00 90 1019.4
20260508192505 50 0 0.0 0.0 0.00 0.00 0.00 89 1017.4
20260508192503 49 270 0.0 2.0 0.00 0.00 0.00 90 1019.4
20260508192006 50 0 0.0 0.0 0.00 0.00 0.00 89 1017.4
20260508192003 49 270 1.0 2.0 0.00 0.00 0.00 89 1019.3
20260508191505 50 0 0.0 0.0 0.00 0.00 0.00 88 1017.5
20260508191503 49 255 1.0 2.0 0.00 0.00 0.00 89 1019.5
20260508191005 50 0 0.0 0.0 0.00 0.00 0.00 87 1017.4
20260508191003 49 244 1.0 2.0 0.00 0.00 0.00 89 1019.3
20260508190506 50 0 0.0 0.0 0.00 0.00 0.00 87 1017.2
20260508190009 49 270 1.0 2.0 0.00 0.00 0.00 88 1019.4
20260508190005 50 0 0.0 0.0 0.00 0.00 0.00 87 1017.3
20260508185505 50 0 0.0 0.0 0.00 0.00 0.00 86 1017.3
20260508185006 50 0 0.0 0.0 0.00 0.00 0.00 86 1017.2
20260508185003 50 282 2.0 3.0 0.00 0.00 0.00 88 1019.3
20260508184505 50 0 0.0 0.0 0.00 0.00 0.00 86 1017.2
20260508184503 50 289 2.0 3.0 0.00 0.00 0.00 88 1019.4
20260508184003 50 296 1.0 3.0 0.00 0.00 0.00 87 1019.1
20260508183506 50 0 0.0 0.0 0.00 0.00 0.00 86 1017.0
20260508183503 50 273 1.0 2.0 0.00 0.00 0.00 87 1019.1
20260508183005 50 0 0.0 0.0 0.00 0.00 0.00 86 1017.0
20260508183002 50 283 1.0 2.0 0.00 0.00 0.00 86 1019.0
20260508182505 51 1 0.0 1.0 0.00 0.00 0.00 86 1017.0
20260508182503 50 23 1.0 2.0 0.00 0.00 0.00 86 1019.0
20260508182006 51 337 1.0 2.0 0.00 0.00 0.00 86 1016.8
20260508182003 50 9 1.0 2.0 0.00 0.00 0.00 86 1018.7
20260508181505 51 335 1.0 2.0 0.00 0.00 0.00 85 1016.7
20260508181005 51 270 0.0 1.0 0.00 0.00 0.00 85 1016.7
20260508180506 51 270 1.0 2.0 0.00 0.00 0.00 85 1016.6
20260508180503 50 276 0.0 2.0 0.00 0.00 0.00 85 1018.6
20260508180009 50 357 1.0 3.0 0.00 0.00 0.00 85 1018.6
20260508175506 51 307 2.0 3.0 0.00 0.00 0.00 85 1016.6
20260508175503 50 20 2.0 3.0 0.00 0.00 0.00 85 1018.6
20260508175005 51 323 1.0 3.0 0.00 0.00 0.00 84 1016.7
20260508175003 50 354 2.0 2.0 0.00 0.00 0.00 84 1018.6
20260508174505 51 291 0.0 3.0 0.00 0.00 0.00 84 1016.6
20260508173505 51 359 3.0 4.0 0.00 0.00 0.00 84 1016.7
20260508173503 50 357 2.0 4.0 0.00 0.00 0.00 84 1018.6
20260508173003 50 333 2.0 4.0 0.00 0.00 0.00 84 1018.5
20260508172505 51 298 3.0 4.0 0.00 0.00 0.00 84 1016.7
20260508172503 51 6 3.0 4.0 0.00 0.00 0.00 84 1018.6
20260508172006 51 297 3.0 4.0 0.00 0.00 0.00 84 1016.5
20260508171505 51 313 3.0 5.0 0.00 0.00 0.00 84 1016.6
20260508171503 51 333 3.0 8.0 0.00 0.00 0.00 83 1018.6
20260508171005 51 303 4.0 5.0 0.00 0.00 0.00 83 1016.7
20260508171002 51 359 4.0 8.0 0.00 0.00 0.00 83 1018.3
20260508170505 51 339 3.0 6.0 0.00 0.00 0.00 83 1016.6
20260508170503 51 6 4.0 8.0 0.00 0.00 0.00 83 1018.4
20260508170009 51 330 4.0 8.0 0.00 0.00 0.00 83 1018.4
20260508170005 51 348 4.0 6.0 0.00 0.00 0.00 83 1016.7
20260508165505 51 310 4.0 6.0 0.00 0.00 0.00 83 1016.6
20260508165503 51 295 4.0 7.0 0.00 0.00 0.00 83 1018.2
20260508165006 51 297 4.0 5.0 0.00 0.00 0.00 83 1016.6
20260508165004 51 351 4.0 5.0 0.00 0.00 0.00 83 1018.4
20260508164505 51 323 4.0 6.0 0.00 0.00 0.00 83 1016.7
20260508164503 51 13 4.0 6.0 0.00 0.00 0.00 83 1018.5
20260508163505 52 321 4.0 6.0 0.00 0.00 0.00 82 1016.6
20260508163503 51 341 4.0 6.0 0.00 0.00 0.00 83 1018.3
20260508163005 52 303 4.0 6.0 0.00 0.00 0.00 82 1016.7
20260508163003 51 354 4.0 6.0 0.00 0.00 0.00 82 1018.4
20260508162506 52 294 3.0 4.0 0.00 0.00 0.00 82 1016.4
20260508162503 52 331 3.0 4.0 0.00 0.00 0.00 82 1018.5
20260508162005 52 305 3.0 5.0 0.00 0.00 0.00 82 1016.4
20260508162003 52 310 3.0 5.0 0.00 0.00 0.00 82 1018.5
20260508161505 52 298 4.0 5.0 0.00 0.00 0.00 82 1016.5
20260508161503 52 299 3.0 5.0 0.00 0.00 0.00 81 1018.3
20260508161006 52 280 4.0 5.0 0.00 0.00 0.00 81 1016.6
20260508161003 52 280 3.0 5.0 0.00 0.00 0.00 81 1018.4
20260508160503 52 290 3.0 5.0 0.00 0.00 0.00 80 1018.3
20260508160005 52 292 3.0 4.0 0.00 0.00 0.00 81 1016.4
20260508155503 52 291 4.0 7.0 0.00 0.00 0.00 80 1018.4
20260508155005 52 309 5.0 6.0 0.00 0.00 0.00 82 1016.5
20260508155003 52 287 5.0 7.0 0.00 0.00 0.00 81 1018.5
20260508154505 53 288 4.0 6.0 0.00 0.00 0.00 82 1016.4
20260508154503 52 283 4.0 7.0 0.00 0.00 0.00 82 1018.1
20260508154003 52 284 3.0 4.0 0.00 0.00 0.00 82 1018.2
20260508153505 52 309 3.0 4.0 0.00 0.00 0.00 82 1016.5
20260508153503 52 296 3.0 4.0 0.00 0.00 0.00 82 1018.3
20260508153005 52 292 4.0 7.0 0.00 0.00 0.00 82 1016.3
20260508152503 52 284 4.0 7.0 0.00 0.00 0.00 82 1018.2
20260508152006 52 293 4.0 5.0 0.00 0.00 0.00 82 1016.4
20260508152003 52 270 4.0 5.0 0.00 0.00 0.00 81 1018.1
20260508151502 52 290 4.0 5.0 0.00 0.00 0.00 81 1018.1
20260508151003 52 302 4.0 5.0 0.00 0.00 0.00 81 1018.3
20260508150506 52 292 5.0 8.0 0.00 0.00 0.00 82 1016.5
20260508150005 53 277 5.0 8.0 0.00 0.00 0.00 82 1016.4
20260508145506 53 257 5.0 6.0 0.00 0.00 0.00 82 1016.4
20260508145503 52 280 4.0 5.0 0.00 0.00 0.00 82 1018.2
20260508145005 53 255 5.0 6.0 0.00 0.00 0.00 82 1016.4
20260508145003 52 270 4.0 6.0 0.00 0.00 0.00 81 1018.3
20260508144505 53 267 4.0 6.0 0.00 0.00 0.00 82 1016.4
20260508144503 52 290 4.0 6.0 0.00 0.00 0.00 82 1018.2
20260508144006 52 293 4.0 7.0 0.00 0.00 0.00 82 1016.3
20260508144003 52 289 4.0 5.0 0.00 0.00 0.00 82 1018.1
20260508143505 52 297 5.0 7.0 0.00 0.00 0.00 83 1016.4
20260508143005 52 288 5.0 7.0 0.00 0.00 0.00 83 1016.4
20260508142505 52 271 4.0 7.0 0.00 0.00 0.00 84 1016.4
20260508142503 52 304 4.0 7.0 0.00 0.00 0.00 84 1018.3
20260508142006 52 283 4.0 5.0 0.00 0.00 0.00 83 1016.4
20260508142003 51 300 4.0 5.0 0.00 0.00 0.00 84 1018.1
20260508141505 52 283 4.0 5.0 0.00 0.00 0.00 84 1016.4
20260508141503 51 295 3.0 5.0 0.00 0.00 0.00 84 1018.2
20260508141003 51 285 3.0 4.0 0.00 0.01 0.00 84 1018.2
20260508140506 52 278 3.0 3.0 0.00 0.00 0.00 84 1016.4
20260508140503 51 285 3.0 4.0 0.00 0.01 0.00 84 1018.2
20260508140009 51 296 3.0 4.0 0.00 0.01 0.00 84 1018.1
20260508140005 52 323 3.0 4.0 0.00 0.00 0.00 84 1016.5
20260508135506 52 327 3.0 5.0 0.00 0.00 0.00 83 1016.5
20260508135503 51 302 3.0 4.0 0.00 0.01 0.00 84 1018.4
20260508135005 52 329 3.0 5.0 0.00 0.00 0.00 83 1016.5
20260508135003 51 317 3.0 4.0 0.00 0.01 0.00 83 1018.3
20260508134505 52 311 3.0 4.0 0.00 0.00 0.00 83 1016.6
20260508134503 51 338 2.0 4.0 0.00 0.01 0.00 83 1018.3
20260508134005 52 308 4.0 5.0 0.00 0.00 0.00 83 1016.6
20260508133505 52 312 4.0 5.0 0.00 0.00 0.00 83 1016.5
20260508133503 51 336 4.0 6.0 0.00 0.01 0.00 84 1018.3
20260508133005 52 311 4.0 5.0 0.00 0.00 0.00 83 1016.5
20260508133003 51 307 3.0 4.0 0.00 0.01 0.00 83 1018.4
20260508132503 51 331 4.0 7.0 0.00 0.01 0.00 83 1018.3
20260508131505 52 320 5.0 8.0 0.00 0.00 0.00 82 1016.6
20260508131007 52 302 5.0 8.0 0.00 0.01 0.00 82 1018.6
20260508131005 52 318 5.0 8.0 0.00 0.00 0.00 82 1016.6
20260508130505 52 318 5.0 8.0 0.00 0.00 0.00 82 1016.6
20260508130503 52 301 5.0 8.0 0.00 0.01 0.00 81 1018.4
20260508130009 52 300 4.0 8.0 0.00 0.01 0.00 81 1018.5
20260508130006 52 321 5.0 8.0 0.00 0.00 0.00 82 1016.6
20260508125505 53 296 4.0 7.0 0.00 0.00 0.00 82 1016.7
20260508125005 52 280 4.0 7.0 0.00 0.00 0.00 82 1016.6
20260508125003 52 294 4.0 7.0 0.00 0.01 0.00 82 1018.3
20260508124506 52 282 4.0 6.0 0.00 0.00 0.00 83 1016.6
20260508124503 52 301 4.0 6.0 0.00 0.01 0.00 82 1018.4
20260508124005 52 285 4.0 6.0 0.00 0.00 0.00 83 1016.4
20260508124003 52 313 4.0 7.0 0.00 0.01 0.00 82 1018.4
20260508123005 53 304 3.0 5.0 0.00 0.00 0.00 83 1016.6
20260508123003 52 295 3.0 5.0 0.00 0.01 0.00 82 1018.4
20260508122506 53 297 4.0 5.0 0.00 0.00 0.00 82 1016.4
20260508122503 52 273 3.0 5.0 0.00 0.01 0.00 82 1018.4
20260508122005 53 291 4.0 5.0 0.00 0.00 0.00 83 1016.5
20260508122003 52 288 3.0 5.0 0.00 0.01 0.00 82 1018.4
20260508121505 53 308 3.0 5.0 0.00 0.00 0.00 83 1016.4
20260508121503 52 293 3.0 5.0 0.00 0.01 0.00 82 1018.2
20260508121006 53 318 4.0 4.0 0.00 0.00 0.00 83 1016.6
20260508120505 52 318 4.0 6.0 0.00 0.00 0.00 83 1016.5
20260508120503 52 311 4.0 6.0 0.00 0.01 0.00 82 1018.4
20260508120009 52 312 4.0 6.0 0.00 0.01 0.00 84 1018.3
20260508120005 52 313 4.0 6.0 0.00 0.00 0.00 83 1016.5
20260508115506 52 290 5.0 7.0 0.00 0.00 0.00 84 1016.5
20260508115503 51 305 4.0 7.0 0.00 0.01 0.00 84 1018.2
20260508115005 52 287 5.0 7.0 0.00 0.00 0.00 84 1016.5
20260508115003 51 291 5.0 7.0 0.00 0.01 0.00 85 1018.1
20260508114505 52 297 3.0 7.0 0.00 0.00 0.00 86 1016.4
20260508114503 51 282 4.0 7.0 0.00 0.01 0.00 85 1018.3
20260508114003 51 267 3.0 4.0 0.00 0.01 0.00 85 1018.1
20260508113503 51 261 3.0 4.0 0.00 0.01 0.00 85 1018.1
20260508113005 51 313 3.0 4.0 0.00 0.00 0.00 86 1016.5
20260508113003 51 309 3.0 4.0 0.00 0.01 0.00 85 1018.0
20260508112006 51 313 3.0 4.0 0.00 0.00 0.00 85 1016.4
20260508112003 51 282 3.0 4.0 0.00 0.01 0.00 85 1018.0
20260508111503 51 288 4.0 4.0 0.00 0.01 0.00 85 1018.0
20260508111005 51 291 4.0 5.0 0.00 0.00 0.00 86 1016.4
20260508111003 51 297 3.0 4.0 0.00 0.01 0.00 85 1018.0
20260508110506 51 299 3.0 4.0 0.00 0.00 0.00 86 1016.3
20260508110503 51 303 3.0 4.0 0.00 0.01 0.00 85 1018.2
20260508110009 51 292 4.0 4.0 0.00 0.01 0.00 85 1018.0
20260508110005 51 296 4.0 4.0 0.00 0.00 0.00 85 1016.3
20260508105506 51 288 4.0 7.0 0.00 0.00 0.00 85 1016.4
20260508105503 51 272 4.0 7.0 0.00 0.01 0.00 85 1018.2
20260508105005 51 280 5.0 7.0 0.00 0.00 0.00 86 1016.2
20260508104505 51 285 4.0 7.0 0.00 0.00 0.00 86 1016.2
20260508104503 51 292 4.0 5.0 0.00 0.01 0.00 85 1018.1
20260508104006 51 308 4.0 5.0 0.00 0.00 0.00 86 1016.2
20260508103505 51 307 4.0 5.0 0.00 0.00 0.00 86 1016.2
20260508103503 51 302 4.0 5.0 0.00 0.01 0.00 85 1017.9
20260508103005 51 323 4.0 5.0 0.00 0.00 0.00 86 1016.1
20260508102005 51 323 4.0 5.0 0.00 0.00 0.00 87 1016.0
20260508102003 51 354 3.0 4.0 0.00 0.01 0.00 86 1017.9
20260508101505 51 288 2.0 4.0 0.00 0.00 0.00 87 1016.1
20260508101503 51 9 3.0 4.0 0.00 0.01 0.00 87 1018.1
20260508101003 51 333 3.0 4.0 0.00 0.01 0.00 87 1018.0
20260508100503 51 286 2.0 3.0 0.00 0.01 0.00 87 1018.1
20260508095505 50 295 2.0 4.0 0.00 0.00 0.00 88 1016.3
20260508095503 50 303 2.0 3.0 0.00 0.01 0.00 88 1018.3
20260508095005 50 326 3.0 4.0 0.00 0.00 0.00 88 1016.2
20260508095003 50 308 3.0 4.0 0.00 0.01 0.00 88 1018.1
20260508094503 50 329 3.0 4.0 0.00 0.01 0.00 88 1018.2
20260508094005 50 326 3.0 6.0 0.00 0.00 0.00 88 1016.2
20260508094003 50 346 3.0 5.0 0.00 0.01 0.00 88 1018.0
20260508093505 50 326 4.0 6.0 0.00 0.00 0.00 88 1016.2
20260508093503 50 335 4.0 5.0 0.00 0.01 0.00 88 1018.1
20260508093003 50 300 4.0 5.0 0.00 0.01 0.00 88 1018.1
20260508092505 50 305 3.0 5.0 0.00 0.00 0.00 88 1016.1
20260508092503 50 300 3.0 5.0 0.00 0.01 0.00 88 1018.0
20260508092005 50 291 4.0 5.0 0.00 0.00 0.00 88 1016.0
20260508092003 50 318 3.0 5.0 0.00 0.01 0.00 88 1017.9
20260508091505 51 306 4.0 5.0 0.00 0.00 0.00 89 1016.0
20260508091503 50 319 4.0 5.0 0.00 0.01 0.00 89 1018.1
20260508091005 50 319 4.0 5.0 0.00 0.00 0.00 89 1016.1
20260508091003 50 325 4.0 6.0 0.00 0.01 0.00 89 1018.1
20260508090505 50 319 4.0 6.0 0.00 0.00 0.00 89 1016.0
20260508090503 50 341 4.0 6.0 0.00 0.01 0.00 90 1018.1
20260508090009 50 353 4.0 6.0 0.00 0.01 0.00 90 1018.0
20260508090006 50 317 4.0 6.0 0.00 0.00 0.00 90 1016.0
20260508085505 50 312 4.0 6.0 0.00 0.00 0.00 90 1015.8
20260508085503 50 338 3.0 6.0 0.00 0.01 0.00 91 1017.7
20260508085005 50 320 3.0 5.0 0.00 0.00 0.00 91 1015.8
20260508085003 50 320 3.0 6.0 0.00 0.01 0.00 92 1017.8
20260508084505 50 301 4.0 5.0 0.00 0.00 0.00 91 1015.8
20260508084503 50 345 4.0 5.0 0.00 0.01 0.00 93 1017.8
20260508084005 50 303 4.0 8.0 0.00 0.00 0.00 92 1015.9
20260508084002 49 5 4.0 5.0 0.00 0.01 0.00 93 1017.9
20260508083505 50 317 4.0 8.0 0.00 0.00 0.00 92 1015.8
20260508083005 49 315 4.0 8.0 0.00 0.00 0.00 93 1015.7
20260508083003 49 327 5.0 8.0 0.00 0.01 0.00 94 1017.7
20260508082505 49 322 4.0 5.0 0.00 0.00 0.00 93 1015.5
20260508082503 49 328 4.0 6.0 0.00 0.01 0.00 94 1017.5
20260508082005 49 318 4.0 5.0 0.00 0.00 0.00 93 1015.6
20260508082003 49 347 4.0 5.0 0.00 0.01 0.00 94 1017.3
20260508081505 49 312 4.0 5.0 0.00 0.00 0.00 94 1015.4
20260508081503 49 356 4.0 8.0 0.00 0.01 0.00 94 1017.5
20260508081005 49 312 5.0 5.0 0.00 0.00 0.00 94 1015.5
20260508081003 49 354 4.0 8.0 0.00 0.01 0.00 94 1017.3
20260508080505 48 320 5.0 5.0 0.00 0.00 0.00 93 1015.5
20260508080503 48 1 4.0 5.0 0.00 0.01 0.00 94 1017.4
20260508080008 48 351 4.0 5.0 0.00 0.01 0.00 95 1017.5
20260508080005 48 317 3.0 5.0 0.00 0.00 0.00 93 1015.3
20260508075503 48 325 3.0 4.0 0.00 0.01 0.00 95 1017.4
20260508075006 48 318 3.0 4.0 0.00 0.00 0.00 93 1015.6
20260508074505 49 305 3.0 4.0 0.00 0.00 0.00 94 1015.6
20260508074503 48 285 3.0 4.0 0.00 0.01 0.00 95 1017.5
20260508074005 48 321 2.0 4.0 0.00 0.00 0.00 94 1015.6
20260508073505 48 308 3.0 6.0 0.00 0.00 0.00 94 1015.5
20260508073503 48 342 3.0 5.0 0.00 0.01 0.00 95 1017.4
20260508073003 48 348 4.0 5.0 0.00 0.01 0.00 95 1017.4
20260508072505 48 304 4.0 7.0 0.00 0.00 0.00 94 1015.4
20260508072503 48 324 4.0 7.0 0.00 0.01 0.00 96 1017.4
20260508072006 48 297 5.0 7.0 0.00 0.00 0.00 94 1015.3
20260508071505 48 280 5.0 7.0 0.00 0.00 0.00 95 1015.3
20260508071503 48 322 4.0 7.0 0.00 0.01 0.00 96 1017.4
20260508071005 48 297 4.0 6.0 0.00 0.00 0.00 95 1015.3
20260508071003 47 312 4.0 7.0 0.00 0.01 0.00 96 1017.4
20260508070506 48 305 4.0 4.0 0.00 0.00 0.00 95 1015.4
20260508070503 47 298 4.0 7.0 0.00 0.01 0.00 96 1017.4
20260508070009 47 289 4.0 6.0 0.00 0.01 0.00 97 1017.3
20260508070005 48 285 4.0 6.0 0.00 0.00 0.00 96 1015.2
20260508065506 48 294 5.0 6.0 0.00 0.00 0.00 96 1015.2
20260508065503 47 284 5.0 6.0 0.00 0.01 0.00 97 1017.3
20260508065005 48 313 4.0 6.0 0.00 0.00 0.00 96 1015.2
20260508065003 48 307 4.0 7.0 0.00 0.01 0.00 98 1017.2
20260508064505 48 321 4.0 6.0 0.00 0.00 0.00 96 1015.2
20260508064005 48 299 3.0 5.0 0.00 0.00 0.00 97 1015.2
20260508064003 47 295 3.0 5.0 0.00 0.01 0.00 99 1017.1
20260508063505 48 294 4.0 5.0 0.00 0.00 0.00 97 1015.0
20260508063503 47 319 3.0 4.0 0.00 0.01 0.00 99 1016.9
20260508063006 48 324 4.0 6.0 0.00 0.01 0.00 97 1015.1
20260508063003 47 336 4.0 6.0 0.00 0.01 0.00 99 1016.8
20260508062505 48 344 4.0 7.0 0.00 0.01 0.00 98 1014.9
20260508062503 47 335 4.0 7.0 0.00 0.02 0.00 99 1017.1
20260508062005 47 336 4.0 7.0 0.00 0.02 0.00 98 1015.0
20260508062003 47 328 4.0 7.0 0.00 0.04 0.00 99 1016.9
20260508061504 47 323 3.0 5.0 0.00 0.04 0.00 99 1016.9
20260508061006 47 345 4.0 5.0 0.00 0.02 0.00 98 1015.0
20260508061003 47 335 3.0 4.0 0.00 0.04 0.00 99 1017.1
20260508060505 47 344 3.0 4.0 0.00 0.04 0.00 98 1014.9
20260508060006 47 291 3.0 5.0 0.00 0.04 0.00 98 1014.8
20260508055505 47 317 3.0 5.0 0.00 0.04 0.00 98 1014.9
20260508055503 47 341 3.0 4.0 0.00 0.05 0.00 99 1016.6
20260508055005 47 322 3.0 4.0 0.00 0.04 0.00 98 1014.9
20260508055003 47 337 3.0 4.0 0.00 0.05 0.00 99 1016.7
20260508054506 47 305 2.0 4.0 0.00 0.04 0.00 98 1014.8
20260508054503 47 337 3.0 4.0 0.00 0.05 0.00 99 1016.7
20260508054004 47 335 3.0 6.0 0.00 0.05 0.00 99 1016.7
20260508053505 47 273 3.0 6.0 0.00 0.04 0.00 98 1014.8
20260508053503 46 322 3.0 6.0 0.00 0.05 0.00 99 1016.6
20260508053005 47 302 3.0 4.0 0.00 0.04 0.00 98 1014.6
20260508052505 47 314 2.0 4.0 0.00 0.05 0.00 98 1014.8
20260508052503 46 297 2.0 4.0 0.00 0.06 0.00 99 1016.7
20260508052005 47 304 2.0 4.0 0.00 0.06 0.00 98 1014.8
20260508052003 46 313 2.0 3.0 0.00 0.08 0.00 99 1016.6
20260508051505 46 307 2.0 4.0 0.00 0.08 0.00 97 1014.8
20260508051503 46 320 2.0 3.0 0.00 0.11 0.00 97 1016.8
20260508051005 46 299 3.0 4.0 0.00 0.08 0.00 97 1014.8
20260508050505 46 285 4.0 5.0 0.00 0.08 0.00 97 1014.8
20260508050503 46 300 3.0 5.0 0.00 0.11 0.00 97 1016.7
20260508050010 46 290 4.0 5.0 0.00 0.11 0.00 97 1016.5
20260508050005 46 266 4.0 6.0 0.00 0.08 0.00 97 1014.8
20260508045005 46 294 4.0 5.0 0.00 0.08 0.00 96 1014.7
20260508045003 46 296 4.0 5.0 0.00 0.11 0.00 97 1016.7
20260508044505 46 295 5.0 6.0 0.00 0.08 0.00 96 1014.6
20260508044003 46 283 4.0 6.0 0.00 0.11 0.00 97 1016.6
20260508043505 47 295 4.0 5.0 0.00 0.08 0.00 96 1014.6
20260508043503 46 297 4.0 5.0 0.00 0.11 0.00 97 1016.5
20260508043005 47 315 3.0 4.0 0.00 0.08 0.00 96 1014.7
20260508043003 46 303 3.0 4.0 0.00 0.11 0.00 97 1016.7
20260508042505 46 317 3.0 5.0 0.00 0.08 0.00 96 1014.6
20260508042503 46 290 3.0 5.0 0.00 0.11 0.00 97 1016.5
20260508042005 47 305 3.0 5.0 0.00 0.08 0.00 96 1014.6
20260508042003 46 283 3.0 5.0 0.00 0.11 0.00 97 1016.5
20260508041504 46 285 2.0 4.0 0.00 0.11 0.00 97 1016.5
20260508041005 47 348 4.0 4.0 0.00 0.08 0.00 95 1014.5
20260508040505 47 346 3.0 4.0 0.00 0.08 0.00 95 1014.5
20260508040503 46 330 3.0 4.0 0.00 0.11 0.00 97 1016.3
20260508040005 47 319 3.0 4.0 0.00 0.08 0.00 95 1014.4
20260508035505 47 328 3.0 4.0 0.00 0.08 0.00 95 1014.2
20260508035503 46 342 3.0 4.0 0.00 0.11 0.00 97 1016.1
20260508034505 47 308 3.0 5.0 0.00 0.08 0.00 95 1014.1
20260508034003 46 342 3.0 5.0 0.00 0.12 0.00 96 1016.0
20260508033505 47 295 3.0 5.0 0.00 0.08 0.00 94 1014.1
20260508033503 46 323 3.0 5.0 0.00 0.12 0.00 96 1016.1
20260508033005 47 317 3.0 5.0 0.00 0.08 0.00 94 1014.2
20260508033003 46 327 3.0 5.0 0.00 0.12 0.00 95 1015.8
20260508032503 46 330 2.0 5.0 0.00 0.12 0.00 95 1016.1
20260508032005 47 339 3.0 4.0 0.00 0.08 0.00 94 1014.1
20260508032003 46 341 2.0 4.0 0.00 0.12 0.00 95 1016.0
20260508031505 47 337 3.0 5.0 0.00 0.08 0.00 94 1014.1
20260508031005 47 333 4.0 6.0 0.00 0.08 0.00 94 1014.1
20260508031003 46 345 3.0 6.0 0.00 0.12 0.00 95 1016.1
20260508030505 47 340 4.0 6.0 0.00 0.08 0.00 94 1014.0
20260508030503 46 343 3.0 6.0 0.00 0.12 0.00 95 1015.9
20260508030009 46 316 3.0 4.0 0.00 0.12 0.00 95 1015.8
20260508030005 47 344 4.0 5.0 0.00 0.08 0.00 94 1014.1
20260508025505 47 339 4.0 5.0 0.00 0.08 0.00 93 1013.9
20260508025503 46 307 4.0 4.0 0.00 0.12 0.00 95 1015.9
20260508025005 47 336 5.0 5.0 0.00 0.08 0.00 93 1013.9
20260508025003 46 307 4.0 5.0 0.00 0.12 0.00 95 1016.0
20260508024503 47 332 4.0 6.0 0.00 0.12 0.00 95 1015.9
20260508024005 47 316 4.0 7.0 0.00 0.08 0.00 93 1013.9
20260508023505 47 323 4.0 5.0 0.00 0.08 0.00 93 1014.0
20260508023503 47 341 4.0 5.0 0.00 0.12 0.00 94 1015.8
20260508023003 47 339 3.0 5.0 0.00 0.12 0.00 94 1015.8
20260508022506 47 329 4.0 5.0 0.00 0.08 0.00 93 1014.0
20260508022504 47 342 3.0 4.0 0.00 0.12 0.00 94 1015.9
20260508022005 47 319 3.0 5.0 0.00 0.08 0.00 93 1013.9
20260508022003 47 346 3.0 5.0 0.00 0.12 0.00 94 1015.9
20260508021505 47 313 3.0 4.0 0.00 0.08 0.00 93 1013.9
20260508021005 47 288 3.0 4.0 0.00 0.08 0.00 93 1013.9
20260508020503 47 331 4.0 7.0 0.00 0.12 0.00 94 1015.8
20260508020009 47 334 4.0 7.0 0.00 0.12 0.00 94 1015.9
20260508020006 48 343 5.0 8.0 0.00 0.08 0.00 93 1014.0
20260508015505 48 326 5.0 8.0 0.00 0.08 0.00 93 1014.0
20260508015005 48 329 5.0 8.0 0.00 0.08 0.00 93 1013.9
20260508015003 47 7 5.0 8.0 0.00 0.12 0.00 94 1015.8
20260508014503 47 1 4.0 6.0 0.00 0.12 0.00 94 1015.7
20260508014003 47 341 5.0 8.0 0.00 0.12 0.00 95 1015.7
20260508013505 48 346 6.0 8.0 0.00 0.08 0.00 93 1013.7
20260508013503 47 335 6.0 8.0 0.00 0.12 0.00 95 1015.5
20260508013004 47 350 5.0 8.0 0.00 0.12 0.00 95 1015.6
20260508012505 48 338 5.0 8.0 0.00 0.08 0.00 93 1013.9
20260508012503 47 23 5.0 8.0 0.00 0.12 0.00 95 1015.9
20260508012005 48 299 5.0 9.0 0.00 0.08 0.00 94 1013.9
20260508011505 48 311 6.0 9.0 0.00 0.08 0.00 94 1013.9
20260508011503 48 330 6.0 9.0 0.00 0.12 0.00 95 1015.9